TimeCDT,TemperatureF,Dew PointF,Humidity,Sea Level PressureIn,VisibilityMPH,Wind Direction,Wind SpeedMPH,Gust SpeedMPH,PrecipitationIn,Events,Conditions,WindDirDegrees,DateUTC
12:15 AM,27.5,18.1,68,30.12,10.0,NNW,5.8,-,N/A,,Overcast,340,2013-03-26 05:15:00
12:35 AM,27.3,18.0,68,30.12,10.0,North,5.8,-,N/A,,Overcast,360,2013-03-26 05:35:00
12:55 AM,27.1,18.0,68,30.13,10.0,North,6.9,-,N/A,,Overcast,360,2013-03-26 05:55:00
1:15 AM,27.0,18.0,69,30.13,10.0,North,8.1,-,N/A,,Overcast,360,2013-03-26 06:15:00
1:35 AM,26.6,18.0,70,30.13,10.0,NNW,5.8,-,N/A,,Overcast,340,2013-03-26 06:35:00
1:55 AM,26.6,17.8,69,30.13,10.0,NNW,5.8,-,N/A,,Overcast,340,2013-03-26 06:55:00
2:15 AM,26.4,17.6,69,30.13,10.0,NW,4.6,-,N/A,,Overcast,320,2013-03-26 07:15:00
2:35 AM,26.4,17.4,69,30.12,10.0,NNW,3.5,-,N/A,,Overcast,330,2013-03-26 07:35:00
2:55 AM,26.4,17.6,69,30.12,10.0,NNW,3.5,-,N/A,,Overcast,330,2013-03-26 07:55:00
3:15 AM,26.1,17.4,70,30.12,10.0,NNW,5.8,-,N/A,,Overcast,340,2013-03-26 08:15:00
3:35 AM,26.2,17.6,70,30.12,10.0,NNW,5.8,-,N/A,,Overcast,330,2013-03-26 08:35:00
3:55 AM,26.1,17.6,70,30.13,10.0,NNW,6.9,-,N/A,,Overcast,340,2013-03-26 08:55:00
4:15 AM,26.1,17.6,70,30.13,10.0,NNW,8.1,-,N/A,,Overcast,330,2013-03-26 09:15:00
4:35 AM,26.1,17.4,70,30.13,10.0,NW,5.8,-,N/A,,Overcast,320,2013-03-26 09:35:00
4:55 AM,25.7,17.4,71,30.13,10.0,NNW,4.6,-,N/A,,Overcast,340,2013-03-26 09:55:00
5:15 AM,25.7,17.2,70,30.13,10.0,NNW,4.6,-,N/A,,Overcast,330,2013-03-26 10:15:00
5:35 AM,25.7,17.2,70,30.14,10.0,NNW,3.5,-,N/A,,Overcast,330,2013-03-26 10:35:00
5:55 AM,25.7,16.9,69,30.14,10.0,NNW,5.8,-,N/A,,Overcast,330,2013-03-26 10:55:00
6:15 AM,25.5,16.7,69,30.15,10.0,NNW,5.8,-,N/A,,Overcast,330,2013-03-26 11:15:00
6:35 AM,25.5,17.1,70,30.16,10.0,NW,3.5,-,N/A,,Overcast,320,2013-03-26 11:35:00
6:55 AM,25.5,17.6,72,30.16,10.0,NW,4.6,-,N/A,,Overcast,320,2013-03-26 11:55:00
7:15 AM,25.5,17.8,72,30.17,10.0,NNW,3.5,-,N/A,,Overcast,330,2013-03-26 12:15:00
7:35 AM,25.7,18.1,73,30.17,10.0,NNW,5.8,-,N/A,,Overcast,330,2013-03-26 12:35:00
7:55 AM,25.7,18.5,74,30.18,10.0,NW,3.5,-,N/A,,Overcast,310,2013-03-26 12:55:00
8:15 AM,26.1,18.9,74,30.18,10.0,NW,5.8,-,N/A,,Overcast,320,2013-03-26 13:15:00
8:35 AM,26.4,19.4,75,30.18,10.0,NW,6.9,-,N/A,,Overcast,310,2013-03-26 13:35:00
8:55 AM,27.1,19.9,74,30.18,10.0,NW,4.6,-,N/A,,Overcast,320,2013-03-26 13:55:00
9:15 AM,27.9,20.3,73,30.19,10.0,NW,5.8,-,N/A,,Overcast,310,2013-03-26 14:15:00
9:35 AM,28.4,20.7,73,30.19,10.0,NNW,3.5,-,N/A,,Overcast,330,2013-03-26 14:35:00
9:55 AM,29.3,21.4,72,30.19,10.0,NW,10.4,-,N/A,,Overcast,320,2013-03-26 14:55:00
10:15 AM,30.2,21.9,71,30.20,10.0,North,10.4,16.1,N/A,,Overcast,350,2013-03-26 15:15:00
10:35 AM,31.1,22.3,70,30.20,10.0,NNW,11.5,-,N/A,,Overcast,340,2013-03-26 15:35:00
10:55 AM,32.0,22.3,67,30.20,10.0,NNW,10.4,-,N/A,,Overcast,330,2013-03-26 15:55:00
11:15 AM,32.4,22.6,67,30.19,10.0,NNW,9.2,-,N/A,,Overcast,340,2013-03-26 16:15:00
11:35 AM,32.9,22.5,65,30.19,10.0,NNW,10.4,-,N/A,,Overcast,330,2013-03-26 16:35:00
11:55 AM,33.8,22.3,63,30.19,10.0,NNW,8.1,-,N/A,,Overcast,330,2013-03-26 16:55:00
12:15 PM,34.2,21.9,61,30.19,10.0,North,9.2,-,N/A,,Overcast,350,2013-03-26 17:15:00
12:35 PM,34.3,21.9,60,30.19,10.0,North,9.2,-,N/A,,Overcast,360,2013-03-26 17:35:00
12:55 PM,35.1,21.0,57,30.18,10.0,North,8.1,-,N/A,,Overcast,350,2013-03-26 17:55:00
1:15 PM,35.6,21.7,57,30.18,10.0,NW,6.9,-,N/A,,Overcast,310,2013-03-26 18:15:00
1:55 PM,35.6,20.5,54,30.18,10.0,NW,8.1,-,N/A,,Overcast,310,2013-03-26 18:55:00
2:15 PM,36.0,20.1,53,30.18,10.0,WNW,9.2,-,N/A,,Overcast,300,2013-03-26 19:15:00
2:35 PM,36.1,19.8,51,30.18,10.0,WNW,8.1,-,N/A,,Overcast,290,2013-03-26 19:35:00
2:55 PM,36.1,19.2,50,30.18,10.0,NW,8.1,-,N/A,,Overcast,310,2013-03-26 19:55:00
3:15 PM,36.0,18.5,49,30.18,10.0,NW,9.2,-,N/A,,Overcast,320,2013-03-26 20:15:00
3:55 PM,36.5,18.1,47,30.18,10.0,WNW,6.9,-,N/A,,Overcast,290,2013-03-26 20:55:00
4:15 PM,36.3,18.5,48,30.18,10.0,NW,10.4,-,N/A,,Overcast,320,2013-03-26 21:15:00
4:35 PM,35.8,18.3,49,30.18,10.0,NW,6.9,-,N/A,,Overcast,320,2013-03-26 21:35:00
4:55 PM,35.8,16.9,46,30.18,10.0,WNW,5.8,16.1,N/A,,Overcast,300,2013-03-26 21:55:00
5:15 PM,36.0,16.3,45,30.18,10.0,West,8.1,-,N/A,,Overcast,280,2013-03-26 22:15:00
5:35 PM,35.6,17.1,47,30.19,10.0,NW,9.2,-,N/A,,Overcast,320,2013-03-26 22:35:00
5:55 PM,35.6,18.0,49,30.19,10.0,WNW,5.8,-,N/A,,Overcast,300,2013-03-26 22:55:00
6:15 PM,35.1,18.5,51,30.19,10.0,WNW,8.1,-,N/A,,Overcast,290,2013-03-26 23:15:00
6:35 PM,34.9,18.1,51,30.20,10.0,West,5.8,-,N/A,,Overcast,280,2013-03-26 23:35:00
6:55 PM,34.7,18.1,51,30.20,10.0,WNW,4.6,-,N/A,,Overcast,300,2013-03-26 23:55:00
7:35 PM,34.0,19.2,55,30.20,10.0,Calm,Calm,-,N/A,,Overcast,0,2013-03-27 00:35:00
7:55 PM,33.8,19.4,56,30.21,10.0,West,3.5,-,N/A,,Overcast,280,2013-03-27 00:55:00
8:15 PM,33.4,19.4,56,30.21,10.0,Calm,Calm,-,N/A,,Overcast,0,2013-03-27 01:15:00
8:35 PM,33.4,19.4,56,30.21,10.0,WNW,4.6,-,N/A,,Overcast,290,2013-03-27 01:35:00
8:55 PM,33.1,19.4,57,30.22,10.0,WNW,4.6,-,N/A,,Overcast,290,2013-03-27 01:55:00
9:15 PM,32.9,19.4,58,30.22,10.0,WNW,3.5,-,N/A,,Overcast,300,2013-03-27 02:15:00
9:35 PM,32.9,19.4,58,30.22,10.0,WNW,3.5,-,N/A,,Overcast,300,2013-03-27 02:35:00
9:55 PM,32.5,19.4,58,30.22,10.0,Calm,Calm,-,N/A,,Overcast,0,2013-03-27 02:55:00
10:15 PM,32.2,19.9,61,30.22,10.0,NW,3.5,-,N/A,,Overcast,320,2013-03-27 03:15:00
10:35 PM,32.2,19.6,60,30.23,10.0,NW,4.6,-,N/A,,Overcast,310,2013-03-27 03:35:00
10:55 PM,32.0,19.8,61,30.23,10.0,NW,3.5,-,N/A,,Overcast,310,2013-03-27 03:55:00
11:15 PM,32.0,19.9,61,30.23,10.0,Calm,Calm,-,N/A,,Overcast,0,2013-03-27 04:15:00
11:35 PM,32.0,19.8,61,30.23,10.0,Calm,Calm,-,N/A,,Overcast,0,2013-03-27 04:35:00
11:55 PM,32.0,19.9,61,30.23,10.0,Calm,Calm,-,N/A,,Overcast,0,2013-03-27 04:55:00